Flag for Poland Weather past 2 weeks in Koszalin, Poland

Now
40 °F

Light rain. Overcast.


Feels Like: 36 °F
Forecast: 37 / 41 °F
Wind: 7 mph from West

Location: Koszalin

Current Time: Mar 2, 2015 at 5:00:07 PM

Latest Report: Mar 2, 2015 at 4:00 PM


Visibility: 14 mi

Pressure: 29.41 "Hg

Humidity: 82%

Dew point: 35 °F

Location of KoszalinLocation

Historic Weather in Koszalin — Graph

°F

Koszalin temperature yesterday

Maximum temperature yesterday: 44 °F (at 1:00 PM)
Minimum temperature yesterday: 30 °F (at 1:00 AM)
Average temperature yesterday: 37 °F

Past Weeks' High & Low Weather Summary

 TemperatureHumidityPressure
High52 °F (Feb 21, 2:00 PM)97% (Feb 28, 10:00 AM)30.64 "Hg (Feb 28, 10:00 AM)
Low26 °F (Feb 17, 7:00 AM)41% (Feb 21, 1:00 PM)29.32 "Hg (Feb 21, 2:00 PM)
Average37 °F76%29.97 "Hg
* Reported Feb 15 3:00 PM — Mar 2 3:00 PM, Koszalin, Weather by CustomWeather, © 2015

Note: Actual official high and low records may vary slightly from our data, if they occured in-between our weather recording intervals... More about our weather records

Advertising

Koszalin weather history for previous 24 hours

 ConditionsComfort  
Time TempWeatherWind HumidityBarometerVisibility
3:00 PM
Mon, Mar 2
40 °FLight rain. Overcast.8 mph86%29.38 "Hg11 mi
2:00 PM40 °FLight rain. Overcast.7 mph87%29.35 "Hg4 mi
1:00 PM40 °FLight rain. Overcast.6 mph88%29.32 "Hg8 mi
12:00 PM39 °FLight rain. Low clouds.5 mph92%29.32 "Hg6 mi
11:00 AM38 °FLight rain. Low clouds.6 mph90%29.32 "Hg6 mi
10:00 AM39 °FLight rain. Overcast.6 mph90%29.35 "Hg4 mi
9:00 AM38 °FFog.5 mph93%29.35 "Hg4 mi
8:00 AM35 °FFog.3 mph96%29.38 "Hg3 mi
7:00 AM34 °FFog.5 mph96%29.38 "Hg2 mi
6:00 AM33 °FFog.5 mph95%29.41 "Hg1 mi
5:00 AM34 °FFog.3 mph94%29.44 "Hg4 mi
4:00 AM35 °FFog.3 mph93%29.47 "Hg5 mi
3:00 AM36 °FFog.3 mph93%29.47 "Hg5 mi
2:00 AM37 °FPassing clouds.3 mph92%29.50 "Hg6 mi
1:00 AM39 °FPassing clouds.3 mph90%29.50 "Hg8 mi
12:00 AM39 °FOvercast.2 mph92%29.50 "Hg7 mi
11:00 PM
Sun, Mar 1
40 °FLight rain. Overcast.3 mph90%29.50 "Hg7 mi
10:00 PM40 °FLight rain. Overcast.5 mph90%29.53 "Hg5 mi
9:00 PM40 °FOvercast.3 mph92%29.54 "Hg4 mi
8:00 PM39 °FLight rain. Low clouds.3 mph91%29.54 "Hg4 mi
7:00 PM39 °FLow clouds.5 mph91%29.54 "Hg6 mi
6:00 PM39 °FLight rain. Low clouds.5 mph90%29.55 "Hg4 mi
5:00 PM39 °FLight rain. Low clouds.7 mph88%29.56 "Hg3 mi
Weather by CustomWeather, © 2015

See weather overviewHow to use our weather pages